User: anonymous   Login
Location: Munkebjergskolens Observatorium
(55.3864°N, 10.3987°E)
Time: 05:19:14
(UTC+02:00)
Language:

CAS-4A - Orbit

View from above orbital plane
View from above orbital plane
View from above satellite
View from above satellite

Ground track
Ground track

The orbit data is extracted from the following two-line orbital elements,

1 42761U 17034D   23084.85683236  .00018990  00000-0  98348-3 0  9995
2 42761  43.0163 216.9469 0012385 285.0509 212.6857 15.15822292318992
Epoch (UTC): 25 March 2023 20:33:50
Eccentricity: 0.0012385
inclination: 43.0163°
perigee height: 510 km
apogee height: 527 km
right ascension of ascending node: 216.9469°
argument of perigee: 285.0509°
revolutions per day: 15.15822292
mean anomaly at epoch: 212.6857°
orbit number at epoch: 31899

The dashed part of the orbit path shows where the satellite is in the earth's shadow,  

DLR